This is the latest recevied weather packets stored in our database for station/object KN6CW-3. If no packets are shown the sender has not sent any weather packets the latest 10 day(s).
| Time | Temp. | Humidity | Pressure | Rain* | Wind** | Luminosity | Snow |
|---|---|---|---|---|---|---|---|
| 1777649621 | 10° C | 56% | 1013.8 hPa | 0 mm | - | 875 W/m² | - |
| 1777649321 | 10° C | 55% | 1013.9 hPa | 0 mm | - | 875 W/m² | - |
| 1777649020 | 10° C | 56% | 1014 hPa | 0 mm | - | 865 W/m² | - |
| 1777648720 | 10° C | 58% | 1014 hPa | 0 mm | - | 861 W/m² | - |
| 1777648419 | 10° C | 61% | 1014 hPa | 0 mm | - | 865 W/m² | - |
| 1777648119 | 10° C | 64% | 1014.1 hPa | 0 mm | - | 861 W/m² | - |
| 1777647819 | 9.44° C | 64% | 1014.1 hPa | 0 mm | - | 851 W/m² | - |
| 1777647519 | 9.44° C | 64% | 1014 hPa | 0 mm | - | 891 W/m² | - |
| 1777647218 | 8.89° C | 71% | 1014 hPa | 0 mm | - | 837 W/m² | - |
| 1777646918 | 9.44° C | 67% | 1014 hPa | 0 mm | - | 830 W/m² | - |
| 1777646618 | 8.89° C | 69% | 1014.1 hPa | 0 mm | - | 846 W/m² | - |
| 1777646317 | 8.89° C | 69% | 1014 hPa | 0 mm | - | 803 W/m² | - |
| 1777646017 | 8.89° C | 68% | 1014 hPa | 0 mm | - | 817 W/m² | - |
| 1777645717 | 8.89° C | 71% | 1014.1 hPa | 0 mm | - | 480 W/m² | - |
| 1777645417 | 8.89° C | 71% | 1014.1 hPa | 0 mm | - | 856 W/m² | - |
| 1777645116 | 8.89° C | 71% | 1014 hPa | 0 mm | - | 759 W/m² | - |
| 1777644816 | 8.33° C | 71% | 1014 hPa | 0 mm | - | 735 W/m² | - |
| 1777644516 | 8.33° C | 71% | 1014 hPa | 0 mm | - | 772 W/m² | - |
| 1777644215 | 8.33° C | 76% | 1014.1 hPa | 0 mm | - | 782 W/m² | - |
| 1777643915 | 7.78° C | 76% | 1014.1 hPa | 0 mm | - | 772 W/m² | - |
| 1777643615 | 7.78° C | 76% | 1014 hPa | 0 mm | - | 786 W/m² | - |
| 1777643314 | 7.22° C | 76% | 1014.1 hPa | 0 mm | - | 777 W/m² | - |
| 1777643014 | 7.22° C | 79% | 1014.2 hPa | 0 mm | - | 752 W/m² | - |
| 1777642714 | 6.67° C | 84% | 1014.1 hPa | 0 mm | - | 740 W/m² | - |
| 1777642414 | 6.11° C | 84% | 1014.2 hPa | 0 mm | - | 701 W/m² | - |
* Rain latest hour (hover to see other rain measurements)
** Current wind speed in m/s (hover to see current wind gust speed)